Waterford, MI

3:33 PM EST on February 24, 2017 (GMT -0500)
Oakland County International

Weather History for KPTK - November, 2012

Change the Weather History Date:

Friday, November 16, 2012

  Actual Average Record
Temperature  
Mean Temperature 38 °F -  
Max Temperature 51 °F 44 °F 62 °F (2015)
Min Temperature 25 °F 31 °F 15 °F (1997)
Degree Days  
Heating Degree Days 27    
Moisture  
Dew Point 28 °F    
Average Humidity 75    
Maximum Humidity 96    
Minimum Humidity 43    
Precipitation  
Precipitation 0.00 in - - ()
Sea Level Pressure  
Sea Level Pressure 30.46 in    
Wind  
Wind Speed 1 mph (WNW)    
Max Wind Speed 7 mph    
Max Gust Speed -    
Visibility 7 miles    
Events Fog    
Averages and records for this station are not official NWS values.
T = Trace of Precipitation, MM = Missing Value Source: NWS Daily Summary

Daily Weather History Graph

Daily Weather History Graph

Search for Another Location

Airport or City:

Trip Planner

Search our weather history database for the weather conditions in past years. The results will help you decide how hot, cold, wet, or windy it might be!

Date:

Astronomy

Nov. 16, 2012 Rise Set
Actual Time 7:27 AM EST 5:09 PM EST
Civil Twilight 6:56 AM EST 5:40 PM EST
Nautical Twilight 6:22 AM EST 6:14 PM EST
Astronomical Twilight 5:48 AM EST 6:47 PM EST
Moon 10:21 AM EST (11/16) 8:07 PM EST (11/16)
Length of Visible Light 10h 43m
Length of Day
9h 42m
Waxing Crescent, 11% of the Moon is Illuminated
Nov 16
Waxing Crescent
Nov 20
First Quarter
Nov 28
Full
Dec 6
Last Quarter
Dec 13
New

Hourly Weather History & Observations

Time (EST) Temp. Windchill Dew Point Humidity Pressure Visibility Wind Dir Wind Speed Gust Speed Precip Events Conditions
12:53 AM 27.0 °F - 25.0 °F 92% 30.38 in 6.0 mi Calm Calm - N/A   Clear
1:53 AM 28.0 °F - 25.0 °F 88% 30.38 in 6.0 mi Calm Calm - N/A   Clear
2:53 AM 27.0 °F - 25.0 °F 92% 30.40 in 5.0 mi Calm Calm - N/A   Clear
3:53 AM 26.1 °F - 24.1 °F 92% 30.40 in 7.0 mi Calm Calm - N/A   Clear
4:53 AM 25.0 °F - 24.1 °F 96% 30.41 in 6.0 mi Calm Calm - N/A   Clear
5:53 AM 27.0 °F - 24.1 °F 89% 30.42 in 7.0 mi Calm Calm - N/A   Clear
6:53 AM 26.1 °F - 23.0 °F 88% 30.43 in 7.0 mi Calm Calm - N/A   Clear
7:53 AM 27.0 °F - 24.1 °F 89% 30.45 in 7.0 mi Calm Calm - N/A   Partly Cloudy
8:53 AM 32.0 °F - 28.9 °F 88% 30.46 in 7.0 mi Calm Calm - N/A   Partly Cloudy
9:53 AM 39.9 °F 37.8 °F 30.0 °F 68% 30.47 in 7.0 mi NNW 3.5 mph - N/A   Partly Cloudy
10:53 AM 45.0 °F 41.8 °F 33.1 °F 63% 30.47 in 8.0 mi NW 5.8 mph - N/A   Partly Cloudy
11:53 AM 46.9 °F - 34.0 °F 61% 30.46 in 8.0 mi Calm Calm - N/A   Clear
12:53 PM 50.0 °F - 32.0 °F 50% 30.45 in 9.0 mi West 4.6 mph - N/A   Clear
1:53 PM 51.1 °F - 30.0 °F 44% 30.45 in 10.0 mi SW 3.5 mph - N/A   Clear
2:53 PM 51.1 °F - 30.9 °F 46% 30.45 in 10.0 mi SW 5.8 mph - N/A   Clear
3:53 PM 51.1 °F - 28.9 °F 43% 30.46 in 10.0 mi West 4.6 mph - N/A   Clear
4:53 PM 48.9 °F - 30.0 °F 48% 30.48 in 10.0 mi NNW 6.9 mph - N/A   Clear
5:53 PM 44.1 °F 41.5 °F 30.0 °F 58% 30.49 in 10.0 mi North 4.6 mph - N/A   Partly Cloudy
6:53 PM 39.9 °F - 30.9 °F 70% 30.50 in 8.0 mi Calm Calm - N/A   Partly Cloudy
7:53 PM 37.9 °F - 30.9 °F 76% 30.51 in 8.0 mi Calm Calm - N/A   Clear
8:53 PM 36.0 °F - 30.9 °F 82% 30.52 in 8.0 mi Calm Calm - N/A   Clear
9:53 PM 33.1 °F - 30.9 °F 92% 30.51 in 5.0 mi Calm Calm - N/A Fog Patches of Fog
10:53 PM 30.9 °F - 28.9 °F 92% 30.52 in 5.0 mi Calm Calm - N/A Fog Patches of Fog
11:53 PM 30.0 °F - 28.0 °F 92% 30.52 in 4.0 mi Calm Calm - N/A   Clear